PST,Max TemperatureF,Mean TemperatureF,Min TemperatureF,Max Dew PointF,MeanDew PointF,Min DewpointF,Max Humidity, Mean Humidity, Min Humidity, Max Sea Level PressureIn, Mean Sea Level PressureIn, Min Sea Level PressureIn, Max VisibilityMiles, Mean VisibilityMiles, Min VisibilityMiles, Max Wind SpeedMPH, Mean Wind SpeedMPH, Max Gust SpeedMPH,PrecipitationIn, CloudCover, Events, WindDirDegrees
2012-12-1,64,60,57,59,56,54,100,90,68,30.05,29.97,29.92,10,6,2,20,10,25,0.00,8,Rain,150
2012-12-2,64,58,50,59,53,45,100,81,63,30.13,29.94,29.79,10,7,1,25,10,46,0.01,5,Rain,230
2012-12-3,59,52,44,50,46,43,100,86,59,30.22,30.16,30.12,10,10,10,9,3,,0.00,2,,205
2012-12-4,62,56,50,55,50,48,94,83,67,30.24,30.19,30.16,10,10,10,12,3,18,0.00,4,,158
2012-12-5,62,60,57,61,57,55,100,91,77,30.17,30.14,30.09,10,8,2,13,8,17,0.09,8,Rain,14
2012-12-6,57,54,50,57,50,46,100,83,67,30.15,30.12,30.09,10,10,4,15,6,21,0.00,5,,296
2012-12-7,62,54,46,50,46,41,100,87,52,30.16,30.11,30.08,20,10,10,7,1,,0.00,0,,354
2012-12-8,57,49,41,48,42,39,100,84,51,30.12,30.08,30.05,15,9,0,5,1,,0.00,3,Fog,300
2012-12-9,64,54,44,50,42,37,93,73,37,30.20,30.15,30.11,10,10,10,7,1,,0.00,1,,183
2012-12-10,66,57,48,48,43,39,87,67,43,30.24,30.17,30.12,10,10,10,7,3,,0.00,0,,289
2012-12-11,59,52,44,50,45,41,100,83,67,30.11,30.01,29.88,10,10,7,14,2,23,0.00,3,Rain,231
2012-12-12,55,50,44,50,44,39,100,83,54,29.92,29.88,29.85,10,9,3,8,4,,0.02,5,Rain,258
2012-12-13,51,45,39,43,39,36,100,83,58,29.95,29.90,29.87,10,10,10,6,1,,0.00,2,,318
2012-12-14,51,45,39,43,39,36,93,84,66,30.04,29.91,29.83,15,10,10,8,2,,0.00,5,,141
2012-12-15,48,42,37,46,40,36,100,87,76,30.10,30.05,30.01,15,10,4,13,3,16,0.00,4,Rain,145
2012-12-16,57,50,44,52,46,41,100,85,72,30.38,30.07,30.04,15,10,8,12,3,18,0.00,8,,186
2012-12-17,59,54,50,55,49,39,100,84,66,30.09,30.03,29.99,10,8,2,14,8,21,0.00,6,Rain,212
2012-12-18,51,46,42,39,33,28,76,60,43,30.21,30.08,30.01,10,10,10,20,7,26,0.00,1,,295
2012-12-19,50,42,35,32,30,23,87,68,35,30.33,30.26,30.21,15,10,10,5,1,,0.00,0,,103
2012-12-20,59,47,35,41,35,28,87,69,50,30.23,30.14,30.01,10,10,10,16,4,23,0.00,1,,150
2012-12-21,55,52,50,50,45,39,88,72,58,30.01,29.94,29.89,10,9,2,21,14,29,0.00,6,Rain,145
2012-12-22,57,54,50,48,47,45,94,78,63,30.10,29.95,29.85,10,8,1,24,11,32,0.15,7,Rain,193
2012-12-23,59,54,50,55,48,46,100,86,77,30.10,30.00,29.87,10,8,1,24,8,30,0.00,6,Rain,174
2012-12-24,55,50,44,46,43,39,100,85,58,30.22,30.14,30.05,10,10,10,8,2,,0.00,2,,299
2012-12-25,53,47,41,48,42,37,93,85,76,30.17,30.02,29.81,10,9,2,21,3,26,0.15,4,Rain,194
2012-12-26,53,50,46,46,44,41,93,81,71,30.12,29.99,29.89,10,9,2,18,6,25,0.05,5,Rain,279
2012-12-27,55,48,41,41,39,37,93,74,51,30.19,30.14,30.11,20,10,10,7,4,,0.00,3,,317
2012-12-28,50,44,39,45,40,37,100,87,62,30.20,30.13,30.04,10,10,5,5,1,,0.03,4,Rain,47
2012-12-29,51,46,41,45,41,37,100,86,66,30.10,30.05,30.01,15,8,3,12,3,,0.11,5,Rain,43
2012-12-30,53,45,37,39,38,34,100,82,51,30.19,30.10,30.06,15,10,10,10,1,,0.00,1,,287
2012-12-31,51,43,35,39,34,25,93,76,38,30.32,30.25,30.20,20,10,10,7,2,,0.00,2,,176